Time,TemperatureF,DewpointF,PressureIn,WindDirection,WindDirectionDegrees,WindSpeedMPH,WindSpeedGustMPH,Humidity,HourlyPrecipIn,Conditions,Clouds,dailyrainin,SolarRadiationWatts/m^2,SoftwareType,DateUTC
2013-08-28 00:01:00,66.0,63.6,29.91,NW,317,0.0,0.0,92,0.00,RA,,0.00,0.0,WeatherDisplay:10.37,2013-08-28 04:01:00,
2013-08-28 00:06:00,65.8,63.4,29.91,NW,317,0.1,1.2,92,0.00,RA,,0.00,0.0,WeatherDisplay:10.37,2013-08-28 04:06:00,
2013-08-28 00:11:00,65.7,63.3,29.91,NW,317,0.0,0.0,92,0.00,BKN,,0.00,0.0,WeatherDisplay:10.37,2013-08-28 04:11:00,
2013-08-28 00:15:00,65.6,63.2,29.91,NW,317,0.0,0.0,92,0.00,BKN,,0.00,0.0,WeatherDisplay:10.37,2013-08-28 04:15:00,
2013-08-28 00:20:00,65.4,63.0,29.90,NW,317,0.0,0.0,92,0.00,BKN,,0.00,0.0,WeatherDisplay:10.37,2013-08-28 04:20:00,
2013-08-28 00:25:00,65.2,62.8,29.90,NW,317,0.0,0.0,92,0.00,BKN,,0.00,0.0,WeatherDisplay:10.37,2013-08-28 04:25:00,
2013-08-28 00:30:00,65.1,62.7,29.90,NW,317,0.0,0.0,92,0.00,BKN,,0.00,0.0,WeatherDisplay:10.37,2013-08-28 04:30:00,
2013-08-28 00:35:00,65.1,62.7,29.90,NW,317,0.0,0.0,92,0.00,BKN,,0.00,0.0,WeatherDisplay:10.37,2013-08-28 04:35:00,
2013-08-28 00:40:00,65.0,62.6,29.90,NW,317,0.0,0.0,92,0.00,BKN,,0.00,0.0,WeatherDisplay:10.37,2013-08-28 04:40:00,
2013-08-28 00:45:00,64.9,62.5,29.90,NW,317,0.0,0.0,92,0.00,BKN,,0.00,0.0,WeatherDisplay:10.37,2013-08-28 04:45:00,
2013-08-28 00:50:00,64.9,62.8,29.90,NW,317,0.0,0.0,93,0.00,BKN,,0.00,0.0,WeatherDisplay:10.37,2013-08-28 04:50:00,
2013-08-28 00:55:00,65.0,62.9,29.90,NW,317,0.0,0.0,93,0.00,BKN,,0.00,0.0,WeatherDisplay:10.37,2013-08-28 04:55:00,
2013-08-28 01:00:00,64.9,62.8,29.90,NW,317,0.2,1.2,93,0.00,BKN,,0.00,0.0,WeatherDisplay:10.37,2013-08-28 05:00:00,
2013-08-28 01:05:00,64.9,62.8,29.90,NW,317,0.1,1.2,93,0.00,BKN,,0.00,0.0,WeatherDisplay:10.37,2013-08-28 05:05:00,
2013-08-28 01:10:00,65.0,62.9,29.90,NW,317,0.0,1.2,93,0.00,BKN,,0.00,0.0,WeatherDisplay:10.37,2013-08-28 05:10:00,
2013-08-28 01:15:00,65.0,62.9,29.90,NW,317,0.0,1.2,93,0.00,BKN,,0.00,0.0,WeatherDisplay:10.37,2013-08-28 05:15:00,
2013-08-28 01:20:00,64.9,62.8,29.89,NW,317,0.0,1.2,93,0.00,BKN,,0.00,0.0,WeatherDisplay:10.37,2013-08-28 05:20:00,
2013-08-28 01:25:00,64.9,62.8,29.89,NW,317,0.5,2.3,93,0.00,BKN,,0.00,0.0,WeatherDisplay:10.37,2013-08-28 05:25:00,
2013-08-28 01:30:00,65.0,62.9,29.90,NW,317,0.0,0.0,93,0.00,BKN,,0.00,0.0,WeatherDisplay:10.37,2013-08-28 05:30:00,
2013-08-28 01:35:00,65.0,62.9,29.90,NW,317,0.0,0.0,93,0.00,BKN,,0.00,0.0,WeatherDisplay:10.37,2013-08-28 05:35:00,
2013-08-28 01:40:00,64.9,62.8,29.89,NW,317,0.0,0.0,93,0.00,BKN,,0.00,0.0,WeatherDisplay:10.37,2013-08-28 05:40:00,
2013-08-28 01:45:00,64.7,62.6,29.89,NW,317,0.0,0.0,93,0.00,BKN,,0.00,0.0,WeatherDisplay:10.37,2013-08-28 05:45:00,
2013-08-28 01:50:00,64.6,62.5,29.89,NW,317,0.0,0.0,93,0.00,BKN,,0.00,0.0,WeatherDisplay:10.37,2013-08-28 05:50:00,
2013-08-28 01:55:00,64.6,62.5,29.89,NW,317,0.0,0.0,93,0.00,BKN,,0.00,0.0,WeatherDisplay:10.37,2013-08-28 05:55:00,
2013-08-28 02:00:00,64.5,62.4,29.89,NW,317,0.0,0.0,93,0.00,BKN,,0.00,0.0,WeatherDisplay:10.37,2013-08-28 06:00:00,
2013-08-28 02:05:00,64.5,62.4,29.89,NW,317,0.0,0.0,93,0.00,BKN,,0.00,0.0,WeatherDisplay:10.37,2013-08-28 06:05:00,
2013-08-28 02:10:00,64.5,62.4,29.89,NW,317,0.0,0.0,93,0.00,BKN,,0.00,0.0,WeatherDisplay:10.37,2013-08-28 06:10:00,
2013-08-28 02:15:00,64.4,62.3,29.89,NW,317,0.0,0.0,93,0.00,BKN,,0.00,0.0,WeatherDisplay:10.37,2013-08-28 06:15:00,
2013-08-28 02:20:00,64.3,62.2,29.89,NW,317,0.0,0.0,93,0.00,BKN,,0.00,0.0,WeatherDisplay:10.37,2013-08-28 06:20:00,
2013-08-28 02:25:00,64.2,62.1,29.89,NW,317,0.0,0.0,93,0.00,BKN,,0.00,0.0,WeatherDisplay:10.37,2013-08-28 06:25:00,
2013-08-28 02:30:00,64.1,62.0,29.89,NW,317,0.0,0.0,93,0.00,BKN,,0.00,0.0,WeatherDisplay:10.37,2013-08-28 06:30:00,
2013-08-28 02:35:00,64.1,62.0,29.89,NW,317,0.0,0.0,93,0.00,BKN,,0.00,0.0,WeatherDisplay:10.37,2013-08-28 06:35:00,
2013-08-28 02:40:00,64.0,61.9,29.89,NW,317,0.0,0.0,93,0.00,BKN,,0.00,0.0,WeatherDisplay:10.37,2013-08-28 06:40:00,
2013-08-28 02:45:00,64.0,61.9,29.88,NW,317,0.0,0.0,93,0.00,BKN,,0.00,0.0,WeatherDisplay:10.37,2013-08-28 06:45:00,
2013-08-28 02:50:00,64.1,62.0,29.88,NW,317,0.0,0.0,93,0.00,BKN,,0.00,0.0,WeatherDisplay:10.37,2013-08-28 06:50:00,
2013-08-28 02:55:00,64.0,61.9,29.88,NW,317,0.0,0.0,93,0.00,BKN,,0.00,0.0,WeatherDisplay:10.37,2013-08-28 06:55:00,
2013-08-28 03:00:00,63.8,61.7,29.88,NW,317,0.0,0.0,93,0.00,BKN,,0.00,0.0,WeatherDisplay:10.37,2013-08-28 07:00:00,
2013-08-28 03:05:00,63.8,61.7,29.88,NW,317,0.0,0.0,93,0.00,BKN,,0.00,0.0,WeatherDisplay:10.37,2013-08-28 07:05:00,
2013-08-28 03:10:00,63.7,61.6,29.88,NW,317,0.0,0.0,93,0.00,BKN,,0.00,0.0,WeatherDisplay:10.37,2013-08-28 07:10:00,
2013-08-28 03:15:00,63.6,61.5,29.88,NW,317,0.0,0.0,93,0.00,BKN,,0.00,0.0,WeatherDisplay:10.37,2013-08-28 07:15:00,
2013-08-28 03:20:00,63.5,61.4,29.88,NW,317,0.0,0.0,93,0.00,BKN,,0.00,0.0,WeatherDisplay:10.37,2013-08-28 07:20:00,
2013-08-28 03:25:00,63.5,61.4,29.88,NW,317,0.2,2.3,93,0.00,BKN,,0.00,0.0,WeatherDisplay:10.37,2013-08-28 07:25:00,
2013-08-28 03:30:00,63.4,61.3,29.88,NW,317,0.1,1.2,93,0.00,BKN,,0.00,0.0,WeatherDisplay:10.37,2013-08-28 07:30:00,
2013-08-28 03:35:00,63.3,61.2,29.88,NW,317,0.5,1.2,93,0.00,BKN,,0.00,0.0,WeatherDisplay:10.37,2013-08-28 07:35:00,
2013-08-28 03:40:00,63.3,61.2,29.88,NW,317,0.0,0.0,93,0.00,BKN,,0.00,0.0,WeatherDisplay:10.37,2013-08-28 07:40:00,
2013-08-28 03:45:00,63.3,61.2,29.88,NW,317,1.5,2.3,93,0.00,BKN,,0.00,0.0,WeatherDisplay:10.37,2013-08-28 07:45:00,
2013-08-28 03:50:00,63.2,61.1,29.88,NW,317,0.0,0.0,93,0.00,BKN,,0.00,0.0,WeatherDisplay:10.37,2013-08-28 07:50:00,
2013-08-28 03:55:00,63.1,61.0,29.88,NW,317,0.0,0.0,93,0.00,BKN,,0.00,0.0,WeatherDisplay:10.37,2013-08-28 07:55:00,
2013-08-28 04:00:00,63.1,61.0,29.88,NW,317,0.0,0.0,93,0.00,BKN,,0.00,0.0,WeatherDisplay:10.37,2013-08-28 08:00:00,
2013-08-28 04:05:00,63.0,60.9,29.88,NW,317,0.0,0.0,93,0.00,BKN,,0.00,0.0,WeatherDisplay:10.37,2013-08-28 08:05:00,
2013-08-28 04:10:00,63.1,61.0,29.88,NW,317,0.0,0.0,93,0.00,BKN,,0.00,0.0,WeatherDisplay:10.37,2013-08-28 08:10:00,
2013-08-28 04:15:00,63.1,61.0,29.88,NW,317,0.0,0.0,93,0.00,BKN,,0.00,0.0,WeatherDisplay:10.37,2013-08-28 08:15:00,
2013-08-28 04:20:00,63.0,60.9,29.88,NW,317,0.0,0.0,93,0.00,BKN,,0.00,0.0,WeatherDisplay:10.37,2013-08-28 08:20:00,
2013-08-28 04:25:00,62.9,60.8,29.88,NW,317,0.0,0.0,93,0.00,BKN,,0.00,0.0,WeatherDisplay:10.37,2013-08-28 08:25:00,
2013-08-28 04:30:00,62.8,60.7,29.88,NW,317,0.0,0.0,93,0.00,BKN,,0.00,0.0,WeatherDisplay:10.37,2013-08-28 08:30:00,
2013-08-28 04:35:00,62.5,60.4,29.88,NW,317,0.0,0.0,93,0.00,BKN,,0.00,0.0,WeatherDisplay:10.37,2013-08-28 08:35:00,
2013-08-28 04:40:00,62.3,60.2,29.88,NW,317,0.0,0.0,93,0.00,BKN,,0.00,0.0,WeatherDisplay:10.37,2013-08-28 08:40:00,
2013-08-28 04:45:00,62.3,60.2,29.88,NW,317,0.0,0.0,93,0.00,BKN,,0.00,0.0,WeatherDisplay:10.37,2013-08-28 08:45:00,
2013-08-28 04:50:00,62.3,60.2,29.88,NW,317,0.0,0.0,93,0.00,BKN,,0.00,0.0,WeatherDisplay:10.37,2013-08-28 08:50:00,
2013-08-28 04:55:00,62.2,60.2,29.88,NW,317,0.0,0.0,93,0.00,BKN,,0.00,0.0,WeatherDisplay:10.37,2013-08-28 08:55:00,
2013-08-28 05:00:00,62.0,60.0,29.88,NW,317,0.0,0.0,93,0.00,BKN,,0.00,0.0,WeatherDisplay:10.37,2013-08-28 09:00:00,
2013-08-28 05:05:00,61.9,59.9,29.88,NW,317,0.0,0.0,93,0.00,BKN,,0.00,0.0,WeatherDisplay:10.37,2013-08-28 09:05:00,
2013-08-28 05:10:00,61.8,59.8,29.88,NW,317,0.0,0.0,93,0.00,BKN,,0.00,0.0,WeatherDisplay:10.37,2013-08-28 09:10:00,
2013-08-28 05:15:00,61.6,59.6,29.88,NW,317,0.0,0.0,93,0.00,BKN,,0.00,0.0,WeatherDisplay:10.37,2013-08-28 09:15:00,
2013-08-28 05:20:00,61.6,59.6,29.89,NW,317,0.0,0.0,93,0.00,BKN,,0.00,0.0,WeatherDisplay:10.37,2013-08-28 09:20:00,
2013-08-28 05:25:00,61.7,59.7,29.89,NW,317,0.0,0.0,93,0.00,BKN,,0.00,0.0,WeatherDisplay:10.37,2013-08-28 09:25:00,
2013-08-28 05:30:00,62.0,60.0,29.89,NW,317,0.0,0.0,93,0.00,BKN,,0.00,0.0,WeatherDisplay:10.37,2013-08-28 09:30:00,
2013-08-28 05:34:00,62.5,60.7,29.89,NW,317,0.0,0.0,94,0.00,BKN,,0.00,0.0,WeatherDisplay:10.37,2013-08-28 09:34:00,
2013-08-28 05:39:00,62.6,60.8,29.89,NW,317,0.0,0.0,94,0.00,BKN,,0.00,0.0,WeatherDisplay:10.37,2013-08-28 09:39:00,
2013-08-28 05:44:00,62.3,60.6,29.89,NW,317,0.0,0.0,94,0.00,BKN,,0.00,0.0,WeatherDisplay:10.37,2013-08-28 09:44:00,
2013-08-28 05:49:00,62.0,60.0,29.89,NW,317,0.0,0.0,93,0.00,BKN,,0.00,0.0,WeatherDisplay:10.37,2013-08-28 09:49:00,
2013-08-28 05:54:00,61.9,59.9,29.89,NW,317,0.0,0.0,93,0.00,BKN,,0.00,0.0,WeatherDisplay:10.37,2013-08-28 09:54:00,
2013-08-28 05:59:00,61.8,59.8,29.89,NW,317,0.0,0.0,93,0.00,BKN,,0.00,0.0,WeatherDisplay:10.37,2013-08-28 09:59:00,
2013-08-28 06:04:00,61.7,59.7,29.89,NW,317,0.0,0.0,93,0.00,BKN,,0.00,0.0,WeatherDisplay:10.37,2013-08-28 10:04:00,
2013-08-28 06:09:00,61.5,59.5,29.89,NW,317,0.0,0.0,93,0.00,BKN,,0.00,0.0,WeatherDisplay:10.37,2013-08-28 10:09:00,
2013-08-28 06:14:00,61.3,59.3,29.90,NW,317,0.0,0.0,93,0.00,BKN,,0.00,0.0,WeatherDisplay:10.37,2013-08-28 10:14:00,
2013-08-28 06:19:00,61.1,59.1,29.90,NW,317,0.0,0.0,93,0.00,BKN,,0.00,0.0,WeatherDisplay:10.37,2013-08-28 10:19:00,
2013-08-28 06:24:00,61.1,59.1,29.90,NW,317,0.0,0.0,93,0.00,BKN,,0.00,5.7,WeatherDisplay:10.37,2013-08-28 10:24:00,
2013-08-28 06:29:00,61.0,59.0,29.90,NW,317,0.0,0.0,93,0.00,BKN,,0.00,10.2,WeatherDisplay:10.37,2013-08-28 10:29:00,
2013-08-28 06:34:00,61.1,59.1,29.90,NW,317,0.0,0.0,93,0.00,BKN,,0.00,15.8,WeatherDisplay:10.37,2013-08-28 10:34:00,
2013-08-28 06:39:00,61.1,59.1,29.91,NW,317,0.0,0.0,93,0.00,BKN,,0.00,23.7,WeatherDisplay:10.37,2013-08-28 10:39:00,
2013-08-28 06:44:00,61.1,59.1,29.91,NW,317,0.0,0.0,93,0.00,BKN,,0.00,33.9,WeatherDisplay:10.37,2013-08-28 10:44:00,
2013-08-28 06:49:00,61.2,59.2,29.91,NW,317,0.0,0.0,93,0.00,BKN,,0.00,41.8,WeatherDisplay:10.37,2013-08-28 10:49:00,
2013-08-28 06:54:00,61.4,59.4,29.91,NW,317,0.0,0.0,93,0.00,BKN,,0.00,49.7,WeatherDisplay:10.37,2013-08-28 10:54:00,
2013-08-28 06:59:00,61.6,59.9,29.91,NW,317,0.1,1.2,94,0.00,BKN,,0.00,63.3,WeatherDisplay:10.37,2013-08-28 10:59:00,
2013-08-28 07:04:00,61.8,60.1,29.91,NW,317,0.0,1.2,94,0.00,BKN,,0.00,75.7,WeatherDisplay:10.37,2013-08-28 11:04:00,
2013-08-28 07:09:00,62.1,60.4,29.91,NW,317,0.0,1.2,94,0.00,SCT,,0.00,94.9,WeatherDisplay:10.37,2013-08-28 11:09:00,
2013-08-28 07:14:00,62.5,60.7,29.90,NW,317,0.1,1.2,94,0.00,SCT,,0.00,109.6,WeatherDisplay:10.37,2013-08-28 11:14:00,
2013-08-28 07:19:00,63.0,61.2,29.90,NW,317,1.0,2.3,94,0.00,SCT,,0.00,125.4,WeatherDisplay:10.37,2013-08-28 11:19:00,
2013-08-28 07:24:00,63.7,61.9,29.90,NW,317,0.0,0.0,94,0.00,SCT,,0.00,143.5,WeatherDisplay:10.37,2013-08-28 11:24:00,
2013-08-28 07:30:00,64.2,62.4,29.90,NW,317,0.0,0.0,94,0.00,SCT,,0.00,146.9,WeatherDisplay:10.37,2013-08-28 11:30:00,
2013-08-28 07:35:00,64.4,62.6,29.90,NW,317,0.8,2.3,94,0.00,SCT,,0.00,159.3,WeatherDisplay:10.37,2013-08-28 11:35:00,
2013-08-28 07:40:00,64.7,62.9,29.90,NW,317,1.4,2.3,94,0.00,SCT,,0.00,183.1,WeatherDisplay:10.37,2013-08-28 11:40:00,
2013-08-28 07:45:00,65.0,63.2,29.90,NW,317,0.0,1.2,94,0.00,SCT,,0.00,188.7,WeatherDisplay:10.37,2013-08-28 11:45:00,
2013-08-28 07:50:00,65.5,63.7,29.90,NW,317,0.1,1.2,94,0.00,SCT,,0.00,196.6,WeatherDisplay:10.37,2013-08-28 11:50:00,
2013-08-28 07:55:00,66.2,64.7,29.90,NW,317,0.4,2.3,95,0.00,SCT,,0.00,204.5,WeatherDisplay:10.37,2013-08-28 11:55:00,
2013-08-28 08:00:00,66.7,64.9,29.90,NW,317,0.0,0.0,94,0.00,SCT,,0.00,217.0,WeatherDisplay:10.37,2013-08-28 12:00:00,
2013-08-28 08:05:00,67.2,65.4,29.90,NW,317,0.0,0.0,94,0.00,SCT,,0.00,236.2,WeatherDisplay:10.37,2013-08-28 12:05:00,
2013-08-28 08:10:00,67.8,65.7,29.90,NW,317,0.0,0.0,93,0.00,SCT,,0.00,259.9,WeatherDisplay:10.37,2013-08-28 12:10:00,
2013-08-28 08:15:00,68.4,66.0,29.90,NW,317,0.0,0.0,92,0.00,FEW,,0.00,293.8,WeatherDisplay:10.37,2013-08-28 12:15:00,
2013-08-28 08:20:00,69.1,66.7,29.90,NW,317,0.0,0.0,92,0.00,FEW,,0.00,324.3,WeatherDisplay:10.37,2013-08-28 12:20:00,
2013-08-28 08:25:00,69.7,66.3,29.90,NW,317,0.0,1.2,89,0.00,FEW,,0.00,345.8,WeatherDisplay:10.37,2013-08-28 12:25:00,
2013-08-28 08:30:00,70.2,67.1,29.90,NW,317,0.0,1.2,90,0.00,FEW,,0.00,359.3,WeatherDisplay:10.37,2013-08-28 12:30:00,
2013-08-28 08:35:00,70.8,67.4,29.90,NW,317,0.0,0.0,89,0.00,FEW,,0.00,341.3,WeatherDisplay:10.37,2013-08-28 12:35:00,
2013-08-28 08:40:00,71.3,67.2,29.90,NW,317,0.1,1.2,87,0.00,FEW,,0.00,401.1,WeatherDisplay:10.37,2013-08-28 12:40:00,
2013-08-28 08:45:00,71.9,67.1,29.90,NW,317,0.0,0.0,85,0.00,FEW,,0.00,419.2,WeatherDisplay:10.37,2013-08-28 12:45:00,
2013-08-28 08:50:00,72.6,68.2,29.90,NW,317,0.0,0.0,86,0.00,FEW,,0.00,429.4,WeatherDisplay:10.37,2013-08-28 12:50:00,
2013-08-28 08:55:00,73.0,68.2,29.90,NW,317,0.1,1.2,85,0.00,FEW,,0.00,440.7,WeatherDisplay:10.37,2013-08-28 12:55:00,
2013-08-28 09:00:00,73.3,68.2,29.90,NW,317,1.1,3.5,84,0.00,FEW,,0.00,437.3,WeatherDisplay:10.37,2013-08-28 13:00:00,
2013-08-28 09:05:00,73.6,68.5,29.90,NW,317,0.0,0.0,84,0.00,FEW,,0.00,494.9,WeatherDisplay:10.37,2013-08-28 13:05:00,
2013-08-28 09:10:00,73.9,68.1,29.90,NW,317,0.0,0.0,82,0.00,FEW,,0.00,487.0,WeatherDisplay:10.37,2013-08-28 13:10:00,
2013-08-28 09:15:00,74.2,68.7,29.90,NW,317,0.0,1.2,83,0.00,FEW,,0.00,524.3,WeatherDisplay:10.37,2013-08-28 13:15:00,
2013-08-28 09:20:00,74.7,69.5,29.90,NW,317,0.0,1.2,84,0.00,CLR,,0.00,553.7,WeatherDisplay:10.37,2013-08-28 13:20:00,
2013-08-28 09:25:00,75.0,69.5,29.90,NW,317,0.0,1.2,83,0.00,FEW,,0.00,566.1,WeatherDisplay:10.37,2013-08-28 13:25:00,
2013-08-28 09:30:00,75.3,69.4,29.90,NW,317,0.1,1.2,82,0.00,FEW,,0.00,579.7,WeatherDisplay:10.37,2013-08-28 13:30:00,
2013-08-28 09:35:00,75.5,69.3,29.90,NW,317,0.1,1.2,81,0.00,CLR,,0.00,600.0,WeatherDisplay:10.37,2013-08-28 13:35:00,
2013-08-28 09:40:00,75.8,69.6,29.90,NW,317,0.1,1.2,81,0.00,CLR,,0.00,615.9,WeatherDisplay:10.37,2013-08-28 13:40:00,
2013-08-28 09:45:00,76.1,69.5,29.90,NW,317,0.0,1.2,80,0.00,CLR,,0.00,631.7,WeatherDisplay:10.37,2013-08-28 13:45:00,
2013-08-28 09:50:00,76.5,70.6,29.90,NW,317,0.0,1.2,82,0.00,CLR,,0.00,647.5,WeatherDisplay:10.37,2013-08-28 13:50:00,
2013-08-28 09:55:00,76.9,69.9,29.90,NW,317,0.0,0.0,79,0.00,CLR,,0.00,657.7,WeatherDisplay:10.37,2013-08-28 13:55:00,
2013-08-28 10:00:00,77.2,70.2,29.90,NW,317,0.0,0.0,79,0.00,CLR,,0.00,675.7,WeatherDisplay:10.37,2013-08-28 14:00:00,
2013-08-28 10:05:00,77.3,69.1,29.90,NW,317,0.0,0.0,76,0.00,CLR,,0.00,695.0,WeatherDisplay:10.37,2013-08-28 14:05:00,
2013-08-28 10:10:00,76.9,69.1,29.90,NW,317,0.0,1.2,77,0.00,CLR,,0.00,702.9,WeatherDisplay:10.37,2013-08-28 14:10:00,
2013-08-28 10:15:00,76.9,69.5,29.90,NW,317,0.0,0.0,78,0.00,CLR,,0.00,715.3,WeatherDisplay:10.37,2013-08-28 14:15:00,
2013-08-28 10:20:00,77.5,70.1,29.90,NW,317,0.1,1.2,78,0.00,CLR,,0.00,728.9,WeatherDisplay:10.37,2013-08-28 14:20:00,
2013-08-28 10:25:00,78.0,70.6,29.90,NW,317,0.0,1.2,78,0.00,CLR,,0.00,742.4,WeatherDisplay:10.37,2013-08-28 14:25:00,
2013-08-28 10:30:00,78.4,70.6,29.90,NW,317,0.0,0.0,77,0.00,CLR,,0.00,758.2,WeatherDisplay:10.37,2013-08-28 14:30:00,
2013-08-28 10:35:00,78.9,71.1,29.90,NW,317,0.0,1.2,77,0.00,CLR,,0.00,768.4,WeatherDisplay:10.37,2013-08-28 14:35:00,
2013-08-28 10:40:00,79.2,70.2,29.90,NW,317,0.0,0.0,74,0.00,CLR,,0.00,780.8,WeatherDisplay:10.37,2013-08-28 14:40:00,
2013-08-28 10:45:00,79.4,70.4,29.90,NW,317,0.0,1.2,74,0.00,CLR,,0.00,792.1,WeatherDisplay:10.37,2013-08-28 14:45:00,
2013-08-28 10:50:00,79.8,71.2,29.90,NW,317,2.0,3.5,75,0.00,CLR,,0.00,812.5,WeatherDisplay:10.37,2013-08-28 14:50:00,
2013-08-28 10:55:00,80.1,70.7,29.90,NW,317,0.5,3.5,73,0.00,CLR,,0.00,815.9,WeatherDisplay:10.37,2013-08-28 14:55:00,
2013-08-28 11:00:00,80.3,72.0,29.90,NW,317,1.0,3.0,76,0.00,CLR,,0.00,841.9,WeatherDisplay:10.37,2013-08-28 15:00:00,
2013-08-28 11:05:00,80.4,70.1,29.90,NW,317,1.8,3.0,71,0.00,CLR,,0.00,800.0,WeatherDisplay:10.37,2013-08-28 15:05:00,
2013-08-28 11:10:00,80.5,71.8,29.90,NW,317,1.3,3.5,75,0.00,CLR,,0.00,852.0,WeatherDisplay:10.37,2013-08-28 15:10:00,
2013-08-28 11:15:00,80.8,71.3,29.89,NW,317,0.1,1.2,73,0.00,CLR,,0.00,852.0,WeatherDisplay:10.37,2013-08-28 15:15:00,
2013-08-28 11:20:00,80.9,71.0,29.89,NW,317,0.3,1.2,72,0.00,CLR,,0.00,873.5,WeatherDisplay:10.37,2013-08-28 15:20:00,
2013-08-28 11:25:00,81.1,71.6,29.89,NW,317,3.5,4.6,73,0.00,CLR,,0.00,891.6,WeatherDisplay:10.37,2013-08-28 15:25:00,
2013-08-28 11:30:00,81.1,72.4,29.89,NW,317,1.8,3.0,75,0.00,CLR,,0.00,899.5,WeatherDisplay:10.37,2013-08-28 15:30:00,
2013-08-28 11:35:00,81.2,71.3,29.90,NW,317,0.2,2.3,72,0.00,CLR,,0.00,896.1,WeatherDisplay:10.37,2013-08-28 15:35:00,
2013-08-28 11:40:00,81.4,72.3,29.89,NW,317,0.0,1.2,74,0.00,CLR,,0.00,896.1,WeatherDisplay:10.37,2013-08-28 15:40:00,
2013-08-28 11:45:00,81.7,71.4,29.89,NW,317,0.2,1.2,71,0.00,CLR,,0.00,923.2,WeatherDisplay:10.37,2013-08-28 15:45:00,
2013-08-28 11:50:00,82.0,72.5,29.89,NW,317,0.8,2.3,73,0.00,CLR,,0.00,963.9,WeatherDisplay:10.37,2013-08-28 15:50:00,
2013-08-28 11:55:00,81.8,70.6,29.89,NW,317,0.3,1.2,69,0.00,SCT,,0.00,256.5,WeatherDisplay:10.37,2013-08-28 15:55:00,
2013-08-28 12:00:00,81.3,71.8,29.89,NW,317,0.0,0.0,73,0.00,BKN,,0.00,959.4,WeatherDisplay:10.37,2013-08-28 16:00:00,
2013-08-28 12:05:00,81.4,71.9,29.89,NW,317,0.2,1.2,73,0.00,CLR,,0.00,956.0,WeatherDisplay:10.37,2013-08-28 16:05:00,
2013-08-28 12:10:00,81.4,72.3,29.89,NW,317,0.0,0.0,74,0.00,CLR,,0.00,957.1,WeatherDisplay:10.37,2013-08-28 16:10:00,
2013-08-28 12:15:00,81.8,73.1,29.88,NW,317,0.3,3.5,75,0.00,CLR,,0.00,961.6,WeatherDisplay:10.37,2013-08-28 16:15:00,
2013-08-28 12:21:00,82.0,72.9,29.88,NW,317,0.0,0.0,74,0.00,CLR,,0.00,930.0,WeatherDisplay:10.37,2013-08-28 16:21:00,
2013-08-28 12:26:00,82.4,72.5,29.88,NW,317,0.0,1.2,72,0.00,CLR,,0.00,949.2,WeatherDisplay:10.37,2013-08-28 16:26:00,
2013-08-28 12:31:00,82.8,71.2,29.88,NW,317,0.6,1.2,68,0.00,CLR,,0.00,977.5,WeatherDisplay:10.37,2013-08-28 16:31:00,
2013-08-28 12:36:00,83.0,72.2,29.88,NW,317,0.2,3.5,70,0.00,CLR,,0.00,314.1,WeatherDisplay:10.37,2013-08-28 16:36:00,
2013-08-28 12:41:00,82.8,72.8,29.88,NW,317,0.0,1.2,72,0.00,FEW,,0.00,987.6,WeatherDisplay:10.37,2013-08-28 16:41:00,
2013-08-28 12:46:00,83.0,73.0,29.88,NW,317,0.0,0.0,72,0.00,CLR,,0.00,1006.8,WeatherDisplay:10.37,2013-08-28 16:46:00,
2013-08-28 12:51:00,83.1,72.3,29.87,NW,317,0.1,2.3,70,0.00,CLR,,0.00,983.1,WeatherDisplay:10.37,2013-08-28 16:51:00,
2013-08-28 12:56:00,83.4,71.3,29.87,NW,317,0.0,2.3,67,0.00,CLR,,0.00,979.7,WeatherDisplay:10.37,2013-08-28 16:56:00,
2013-08-28 13:01:00,83.4,72.2,29.87,NW,317,0.2,2.3,69,0.00,CLR,,0.00,993.3,WeatherDisplay:10.37,2013-08-28 17:01:00,
2013-08-28 13:06:00,83.5,72.3,29.87,NW,317,0.2,3.5,69,0.00,CLR,,0.00,983.1,WeatherDisplay:10.37,2013-08-28 17:06:00,
2013-08-28 13:11:00,83.5,71.8,29.87,NW,317,0.0,0.0,68,0.00,CLR,,0.00,1012.5,WeatherDisplay:10.37,2013-08-28 17:11:00,
2013-08-28 13:16:00,83.4,70.4,29.87,NW,317,0.6,2.3,65,0.00,CLR,,0.00,987.6,WeatherDisplay:10.37,2013-08-28 17:16:00,
2013-08-28 13:21:00,83.3,71.6,29.87,NW,317,0.1,1.2,68,0.00,CLR,,0.00,969.5,WeatherDisplay:10.37,2013-08-28 17:21:00,
2013-08-28 13:26:00,83.1,70.1,29.86,NW,317,0.0,0.0,65,0.00,CLR,,0.00,963.9,WeatherDisplay:10.37,2013-08-28 17:26:00,
2013-08-28 13:31:00,83.2,70.7,29.86,NW,317,0.1,1.2,66,0.00,FEW,,0.00,348.0,WeatherDisplay:10.37,2013-08-28 17:31:00,
2013-08-28 13:36:00,83.6,71.5,29.86,NW,317,0.1,1.2,67,0.00,CLR,,0.00,1011.4,WeatherDisplay:10.37,2013-08-28 17:36:00,
2013-08-28 13:41:00,83.8,70.8,29.86,NW,317,0.0,1.0,65,0.00,CLR,,0.00,979.7,WeatherDisplay:10.37,2013-08-28 17:41:00,
2013-08-28 13:46:00,84.0,71.9,29.86,NW,317,0.0,0.0,67,0.00,FEW,,0.00,232.8,WeatherDisplay:10.37,2013-08-28 17:46:00,
2013-08-28 13:51:00,84.0,71.9,29.86,NW,317,0.1,1.2,67,0.00,FEW,,0.00,993.3,WeatherDisplay:10.37,2013-08-28 17:51:00,
2013-08-28 13:56:00,84.2,73.3,29.86,NW,317,0.1,1.2,70,0.00,CLR,,0.00,988.8,WeatherDisplay:10.37,2013-08-28 17:56:00,
2013-08-28 14:01:00,84.8,72.2,29.85,NW,317,0.1,1.2,66,0.00,CLR,,0.00,967.3,WeatherDisplay:10.37,2013-08-28 18:01:00,
2013-08-28 14:06:00,85.2,71.6,29.85,NW,317,0.1,1.2,64,0.00,CLR,,0.00,931.1,WeatherDisplay:10.37,2013-08-28 18:06:00,
2013-08-28 14:11:00,85.3,71.7,29.85,NW,317,0.0,1.2,64,0.00,CLR,,0.00,922.1,WeatherDisplay:10.37,2013-08-28 18:11:00,
2013-08-28 14:16:00,84.8,72.6,29.85,NW,317,0.0,0.0,67,0.00,CLR,,0.00,901.7,WeatherDisplay:10.37,2013-08-28 18:16:00,
2013-08-28 14:21:00,84.7,72.1,29.85,NW,317,0.2,1.2,66,0.00,CLR,,0.00,867.8,WeatherDisplay:10.37,2013-08-28 18:21:00,
2013-08-28 14:26:00,84.7,71.2,29.85,NW,317,0.1,1.2,64,0.00,CLR,,0.00,870.1,WeatherDisplay:10.37,2013-08-28 18:26:00,
2013-08-28 14:31:00,85.0,72.8,29.85,NW,317,0.1,1.2,67,0.00,CLR,,0.00,867.8,WeatherDisplay:10.37,2013-08-28 18:31:00,
2013-08-28 14:36:00,85.2,72.6,29.85,NW,317,0.1,1.2,66,0.00,CLR,,0.00,859.9,WeatherDisplay:10.37,2013-08-28 18:36:00,
2013-08-28 14:41:00,85.0,70.5,29.85,NW,317,0.0,1.2,62,0.00,CLR,,0.00,854.3,WeatherDisplay:10.37,2013-08-28 18:41:00,
2013-08-28 14:46:00,85.3,71.7,29.84,NW,317,0.0,1.2,64,0.00,CLR,,0.00,841.9,WeatherDisplay:10.37,2013-08-28 18:46:00,
2013-08-28 14:51:00,85.3,70.8,29.84,NW,317,0.0,1.2,62,0.00,CLR,,0.00,820.4,WeatherDisplay:10.37,2013-08-28 18:51:00,
2013-08-28 14:56:00,85.2,71.6,29.84,NW,317,0.1,1.2,64,0.00,CLR,,0.00,810.2,WeatherDisplay:10.37,2013-08-28 18:56:00,
2013-08-28 15:01:00,85.1,71.1,29.84,NW,317,0.7,3.5,63,0.00,CLR,,0.00,823.8,WeatherDisplay:10.37,2013-08-28 19:01:00,
2013-08-28 15:06:00,85.2,71.2,29.84,NW,317,0.0,1.2,63,0.00,CLR,,0.00,814.7,WeatherDisplay:10.37,2013-08-28 19:06:00,
2013-08-28 15:11:00,85.6,70.1,29.84,NW,317,0.0,0.0,60,0.00,CLR,,0.00,822.6,WeatherDisplay:10.37,2013-08-28 19:11:00,
2013-08-28 15:16:00,86.1,71.1,29.84,NW,317,0.0,1.2,61,0.00,CLR,,0.00,792.1,WeatherDisplay:10.37,2013-08-28 19:16:00,
2013-08-28 15:21:00,85.9,70.4,29.84,NW,317,0.0,1.2,60,0.00,FEW,,0.00,548.0,WeatherDisplay:10.37,2013-08-28 19:21:00,
2013-08-28 15:26:00,85.5,69.5,29.84,NW,317,0.1,1.2,59,0.00,CLR,,0.00,754.8,WeatherDisplay:10.37,2013-08-28 19:26:00,
2013-08-28 15:31:00,85.8,69.3,29.83,NW,317,0.1,1.2,58,0.00,CLR,,0.00,746.9,WeatherDisplay:10.37,2013-08-28 19:31:00,
2013-08-28 15:36:00,86.4,69.4,29.84,NW,317,0.0,0.0,57,0.00,CLR,,0.00,733.4,WeatherDisplay:10.37,2013-08-28 19:36:00,
2013-08-28 15:41:00,87.0,70.4,29.83,NW,317,0.0,0.0,58,0.00,CLR,,0.00,709.6,WeatherDisplay:10.37,2013-08-28 19:41:00,
2013-08-28 15:46:00,87.6,70.5,29.83,NW,317,0.0,1.2,57,0.00,CLR,,0.00,702.9,WeatherDisplay:10.37,2013-08-28 19:46:00,
2013-08-28 15:51:00,87.9,70.8,29.83,NW,317,0.1,1.2,57,0.00,CLR,,0.00,692.7,WeatherDisplay:10.37,2013-08-28 19:51:00,
2013-08-28 15:56:00,87.7,71.1,29.83,NW,317,0.0,1.2,58,0.00,CLR,,0.00,683.6,WeatherDisplay:10.37,2013-08-28 19:56:00,
2013-08-28 16:01:00,87.4,70.3,29.83,NW,317,0.1,1.2,57,0.00,CLR,,0.00,675.7,WeatherDisplay:10.37,2013-08-28 20:01:00,
2013-08-28 16:06:00,87.1,70.0,29.82,NW,317,0.0,1.2,57,0.00,CLR,,0.00,633.9,WeatherDisplay:10.37,2013-08-28 20:06:00,
2013-08-28 16:11:00,86.8,68.7,29.83,NW,317,0.0,0.0,55,0.00,CLR,,0.00,613.6,WeatherDisplay:10.37,2013-08-28 20:11:00,
2013-08-28 16:16:00,86.8,68.7,29.83,NW,317,0.0,1.2,55,0.00,CLR,,0.00,637.3,WeatherDisplay:10.37,2013-08-28 20:16:00,
2013-08-28 16:21:00,87.1,70.0,29.83,NW,317,0.0,0.0,57,0.00,FEW,,0.00,571.8,WeatherDisplay:10.37,2013-08-28 20:21:00,
2013-08-28 16:26:00,87.2,69.1,29.83,NW,317,0.0,0.0,55,0.00,FEW,,0.00,552.6,WeatherDisplay:10.37,2013-08-28 20:26:00,
2013-08-28 16:31:00,87.1,67.9,29.83,NW,317,0.0,1.2,53,0.00,FEW,,0.00,514.1,WeatherDisplay:10.37,2013-08-28 20:31:00,
2013-08-28 16:36:00,87.1,69.5,29.83,NW,317,0.0,0.0,56,0.00,FEW,,0.00,548.0,WeatherDisplay:10.37,2013-08-28 20:36:00,
2013-08-28 16:42:00,87.2,71.1,29.83,NW,317,0.5,2.3,59,0.00,FEW,,0.00,421.5,WeatherDisplay:10.37,2013-08-28 20:42:00,
2013-08-28 16:47:00,87.1,71.0,29.83,NW,317,0.0,0.0,59,0.00,SCT,,0.00,398.9,WeatherDisplay:10.37,2013-08-28 20:47:00,
2013-08-28 16:52:00,87.0,71.4,29.83,NW,317,0.0,0.0,60,0.00,SCT,,0.00,463.3,WeatherDisplay:10.37,2013-08-28 20:52:00,
2013-08-28 16:57:00,86.8,70.8,29.83,NW,317,0.0,0.0,59,0.00,FEW,,0.00,414.7,WeatherDisplay:10.37,2013-08-28 20:57:00,
2013-08-28 17:02:00,86.9,70.8,29.83,NW,317,0.5,1.2,59,0.00,CLR,,0.00,421.5,WeatherDisplay:10.37,2013-08-28 21:02:00,
2013-08-28 17:07:00,86.8,72.7,29.84,NW,317,0.0,1.2,63,0.00,CLR,,0.00,349.2,WeatherDisplay:10.37,2013-08-28 21:07:00,
2013-08-28 17:12:00,86.8,70.2,29.83,NW,317,0.0,0.0,58,0.00,CLR,,0.00,464.4,WeatherDisplay:10.37,2013-08-28 21:12:00,
2013-08-28 17:17:00,87.0,71.9,29.83,NW,317,0.0,0.0,61,0.00,CLR,,0.00,455.4,WeatherDisplay:10.37,2013-08-28 21:17:00,
2013-08-28 17:22:00,87.3,70.7,29.83,NW,317,0.0,0.0,58,0.00,CLR,,0.00,162.7,WeatherDisplay:10.37,2013-08-28 21:22:00,
2013-08-28 17:27:00,87.2,71.1,29.83,NW,317,0.0,0.0,59,0.00,CLR,,0.00,379.7,WeatherDisplay:10.37,2013-08-28 21:27:00,
2013-08-28 17:32:00,86.9,71.3,29.83,NW,317,0.1,1.2,60,0.00,CLR,,0.00,266.7,WeatherDisplay:10.37,2013-08-28 21:32:00,
2013-08-28 17:37:00,86.8,71.2,29.83,NW,317,0.0,0.0,60,0.00,CLR,,0.00,367.3,WeatherDisplay:10.37,2013-08-28 21:37:00,
2013-08-28 17:42:00,86.6,72.0,29.83,NW,317,0.0,0.0,62,0.00,FEW,,0.00,157.1,WeatherDisplay:10.37,2013-08-28 21:42:00,
2013-08-28 17:47:00,85.9,70.9,29.83,NW,317,0.0,0.0,61,0.00,CLR,,0.00,238.4,WeatherDisplay:10.37,2013-08-28 21:47:00,
2013-08-28 17:52:00,85.0,71.5,29.84,NW,317,0.0,0.0,64,0.00,CLR,,0.00,293.8,WeatherDisplay:10.37,2013-08-28 21:52:00,
2013-08-28 17:57:00,84.2,70.7,29.84,NW,317,0.1,1.2,64,0.00,FEW,,0.00,143.5,WeatherDisplay:10.37,2013-08-28 21:57:00,
2013-08-28 18:02:00,83.8,70.8,29.84,NW,317,0.0,1.2,65,0.00,FEW,,0.00,135.6,WeatherDisplay:10.37,2013-08-28 22:02:00,
2013-08-28 18:07:00,83.4,71.3,29.84,NW,317,0.0,0.0,67,0.00,FEW,,0.00,127.7,WeatherDisplay:10.37,2013-08-28 22:07:00,
2013-08-28 18:12:00,82.8,70.7,29.84,NW,317,0.0,0.0,67,0.00,FEW,,0.00,135.6,WeatherDisplay:10.37,2013-08-28 22:12:00,
2013-08-28 18:17:00,82.2,71.0,29.84,NW,317,0.0,0.0,69,0.00,FEW,,0.00,131.1,WeatherDisplay:10.37,2013-08-28 22:17:00,
2013-08-28 18:22:00,81.8,71.1,29.84,NW,317,0.0,0.0,70,0.00,FEW,,0.00,97.2,WeatherDisplay:10.37,2013-08-28 22:22:00,
2013-08-28 18:27:00,81.4,70.7,29.84,NW,317,0.0,0.0,70,0.00,FEW,,0.00,73.5,WeatherDisplay:10.37,2013-08-28 22:27:00,
2013-08-28 18:32:00,81.0,69.4,29.85,NW,317,0.0,0.0,68,0.00,FEW,,0.00,55.4,WeatherDisplay:10.37,2013-08-28 22:32:00,
2013-08-28 18:37:00,80.5,69.0,29.85,NW,317,0.2,1.2,68,0.00,FEW,,0.00,49.7,WeatherDisplay:10.37,2013-08-28 22:37:00,
2013-08-28 18:42:00,80.0,67.6,29.86,SE,124,5.3,9.2,66,0.00,FEW,,0.00,39.5,WeatherDisplay:10.37,2013-08-28 22:42:00,
2013-08-28 18:47:00,79.3,67.0,29.86,South,175,4.5,8.0,66,0.00,FEW,,0.00,20.3,WeatherDisplay:10.37,2013-08-28 22:47:00,
2013-08-28 18:52:00,78.7,66.8,29.87,South,187,4.0,6.9,67,0.00,FEW,,0.00,15.8,WeatherDisplay:10.37,2013-08-28 22:52:00,
2013-08-28 18:57:00,78.1,67.1,29.87,South,181,4.3,9.2,69,0.00,FEW,,0.00,15.8,WeatherDisplay:10.37,2013-08-28 22:57:00,
2013-08-28 19:02:00,77.4,67.3,29.88,SE,138,4.2,8.1,71,0.00,FEW,,0.00,20.3,WeatherDisplay:10.37,2013-08-28 23:02:00,
2013-08-28 19:07:00,76.5,66.8,29.88,South,179,3.1,7.0,72,0.00,FEW,,0.00,23.7,WeatherDisplay:10.37,2013-08-28 23:07:00,
2013-08-28 19:12:00,75.9,66.2,29.87,SSW,192,4.3,6.9,72,0.00,FEW,,0.00,23.7,WeatherDisplay:10.37,2013-08-28 23:12:00,
2013-08-28 19:17:00,75.3,66.0,29.87,SSW,192,4.5,6.0,73,0.00,FEW,,0.00,20.3,WeatherDisplay:10.37,2013-08-28 23:17:00,
2013-08-28 19:22:00,74.9,66.1,29.87,South,183,4.2,5.8,74,0.00,FEW,,0.00,15.8,WeatherDisplay:10.37,2013-08-28 23:22:00,
2013-08-28 19:27:00,74.6,66.1,29.87,SSW,199,1.1,2.3,75,0.00,FEW,,0.00,12.4,WeatherDisplay:10.37,2013-08-28 23:27:00,
2013-08-28 19:32:00,74.1,66.0,29.86,SSW,193,0.0,0.0,76,0.00,FEW,,0.00,7.9,WeatherDisplay:10.37,2013-08-28 23:32:00,
2013-08-28 19:37:00,73.8,66.1,29.87,SSW,193,0.9,2.3,77,0.00,FEW,,0.00,0.0,WeatherDisplay:10.37,2013-08-28 23:37:00,
2013-08-28 19:42:00,73.4,66.1,29.88,SE,134,1.0,4.6,78,0.00,FEW,,0.00,0.0,WeatherDisplay:10.37,2013-08-28 23:42:00,
2013-08-28 19:47:00,72.9,66.0,29.88,ESE,117,5.3,8.1,79,0.00,FEW,,0.00,0.0,WeatherDisplay:10.37,2013-08-28 23:47:00,
2013-08-28 19:52:00,72.4,66.2,29.88,ESE,123,0.0,3.5,81,0.00,FEW,,0.00,0.0,WeatherDisplay:10.37,2013-08-28 23:52:00,
2013-08-28 19:57:00,72.0,65.8,29.89,ESE,123,2.3,3.5,81,0.00,FEW,,0.00,0.0,WeatherDisplay:10.37,2013-08-28 23:57:00,
2013-08-28 20:02:00,71.8,65.7,29.89,ESE,123,0.0,0.0,81,0.00,FEW,,0.00,0.0,WeatherDisplay:10.37,2013-08-29 00:02:00,
2013-08-28 20:07:00,71.7,65.6,29.89,ESE,123,0.1,2.3,81,0.00,FEW,,0.00,0.0,WeatherDisplay:10.37,2013-08-29 00:07:00,
2013-08-28 20:12:00,71.6,65.8,29.89,ESE,123,0.0,0.0,82,0.00,FEW,,0.00,0.0,WeatherDisplay:10.37,2013-08-29 00:12:00,
2013-08-28 20:17:00,71.5,65.7,29.89,ESE,123,0.0,1.2,82,0.00,FEW,,0.00,0.0,WeatherDisplay:10.37,2013-08-29 00:17:00,
2013-08-28 20:22:00,71.3,65.5,29.90,ESE,123,0.8,2.3,82,0.00,FEW,,0.00,0.0,WeatherDisplay:10.37,2013-08-29 00:22:00,
2013-08-28 20:27:00,71.0,65.2,29.90,ESE,121,1.7,2.3,82,0.00,FEW,,0.00,0.0,WeatherDisplay:10.37,2013-08-29 00:27:00,
2013-08-28 20:32:00,70.7,64.9,29.90,ESE,121,0.0,2.3,82,0.00,FEW,,0.00,0.0,WeatherDisplay:10.37,2013-08-29 00:32:00,
2013-08-28 20:37:00,70.6,65.2,29.91,ESE,121,4.1,4.1,83,0.00,FEW,,0.00,0.0,WeatherDisplay:10.37,2013-08-29 00:37:00,
2013-08-28 20:42:00,70.5,65.1,29.91,ESE,121,3.1,3.5,83,0.00,FEW,,0.00,0.0,WeatherDisplay:10.37,2013-08-29 00:42:00,
2013-08-28 20:47:00,70.4,65.0,29.91,SE,124,2.1,4.0,83,0.00,FEW,,0.00,0.0,WeatherDisplay:10.37,2013-08-29 00:47:00,
2013-08-28 20:52:00,70.5,65.1,29.91,SE,128,2.4,4.6,83,0.00,FEW,,0.00,0.0,WeatherDisplay:10.37,2013-08-29 00:52:00,
2013-08-28 20:57:00,70.7,65.3,29.91,SE,125,4.9,6.9,83,0.00,FEW,,0.00,0.0,WeatherDisplay:10.37,2013-08-29 00:57:00,
2013-08-28 21:02:00,70.8,65.4,29.91,ESE,112,6.1,8.1,83,0.00,FEW,,0.00,0.0,WeatherDisplay:10.37,2013-08-29 01:02:00,
2013-08-28 21:07:00,70.9,65.5,29.91,ESE,122,7.1,11.5,83,0.00,FEW,,0.00,0.0,WeatherDisplay:10.37,2013-08-29 01:07:00,
2013-08-28 21:12:00,70.8,65.4,29.90,ESE,115,3.9,5.8,83,0.00,FEW,,0.00,0.0,WeatherDisplay:10.37,2013-08-29 01:12:00,
2013-08-28 21:17:00,70.8,65.0,29.90,ESE,113,4.7,4.7,82,0.00,FEW,,0.00,0.0,WeatherDisplay:10.37,2013-08-29 01:17:00,
2013-08-28 21:22:00,70.8,65.0,29.90,ESE,113,0.2,3.5,82,0.00,FEW,,0.00,0.0,WeatherDisplay:10.37,2013-08-29 01:22:00,
2013-08-28 21:27:00,70.9,65.1,29.90,ESE,113,0.5,1.2,82,0.00,FEW,,0.00,0.0,WeatherDisplay:10.37,2013-08-29 01:27:00,
2013-08-28 21:32:00,70.8,65.0,29.89,ESE,114,0.1,3.5,82,0.00,FEW,,0.00,0.0,WeatherDisplay:10.37,2013-08-29 01:32:00,
2013-08-28 21:37:00,70.7,64.9,29.90,ESE,114,0.0,0.0,82,0.00,FEW,,0.00,0.0,WeatherDisplay:10.37,2013-08-29 01:37:00,
2013-08-28 21:42:00,70.6,65.5,29.89,ESE,114,0.0,0.0,84,0.00,FEW,,0.00,0.0,WeatherDisplay:10.37,2013-08-29 01:42:00,
2013-08-28 21:47:00,70.3,65.2,29.90,ESE,114,0.0,0.0,84,0.00,FEW,,0.00,0.0,WeatherDisplay:10.37,2013-08-29 01:47:00,
2013-08-28 21:52:00,70.0,64.9,29.90,ESE,114,0.0,0.0,84,0.00,FEW,,0.00,0.0,WeatherDisplay:10.37,2013-08-29 01:52:00,
2013-08-28 21:57:00,69.5,64.5,29.90,ESE,114,0.0,0.0,84,0.00,FEW,,0.00,0.0,WeatherDisplay:10.37,2013-08-29 01:57:00,
2013-08-28 22:02:00,69.1,64.4,29.90,ESE,114,0.0,0.0,85,0.00,FEW,,0.00,0.0,WeatherDisplay:10.37,2013-08-29 02:02:00,
2013-08-28 22:07:00,69.0,64.6,29.90,ESE,114,0.0,0.0,86,0.00,FEW,,0.00,0.0,WeatherDisplay:10.37,2013-08-29 02:07:00,
2013-08-28 22:12:00,68.9,64.5,29.90,ESE,114,0.0,0.0,86,0.00,FEW,,0.00,0.0,WeatherDisplay:10.37,2013-08-29 02:12:00,
2013-08-28 22:17:00,68.6,64.2,29.91,ESE,114,0.0,0.0,86,0.00,FEW,,0.00,0.0,WeatherDisplay:10.37,2013-08-29 02:17:00,
2013-08-28 22:22:00,68.4,64.0,29.91,ESE,114,0.0,0.0,86,0.00,FEW,,0.00,0.0,WeatherDisplay:10.37,2013-08-29 02:22:00,
2013-08-28 22:27:00,68.0,63.7,29.91,ESE,114,0.0,0.0,86,0.00,FEW,,0.00,0.0,WeatherDisplay:10.37,2013-08-29 02:27:00,
2013-08-28 22:32:00,67.6,63.9,29.91,ESE,114,0.0,0.0,88,0.00,FEW,,0.00,0.0,WeatherDisplay:10.37,2013-08-29 02:32:00,
2013-08-28 22:37:00,67.4,64.0,29.91,ESE,114,0.0,0.0,89,0.00,FEW,,0.00,0.0,WeatherDisplay:10.37,2013-08-29 02:37:00,
2013-08-28 22:42:00,67.2,63.8,29.91,ESE,114,0.0,0.0,89,0.00,FEW,,0.00,0.0,WeatherDisplay:10.37,2013-08-29 02:42:00,
2013-08-28 22:47:00,67.2,63.8,29.91,ESE,114,0.0,0.0,89,0.00,FEW,,0.00,0.0,WeatherDisplay:10.37,2013-08-29 02:47:00,
2013-08-28 22:52:00,67.0,63.6,29.91,ESE,114,0.0,0.0,89,0.00,FEW,,0.00,0.0,WeatherDisplay:10.37,2013-08-29 02:52:00,
2013-08-28 22:57:00,66.8,63.5,29.92,ESE,114,0.0,0.0,89,0.00,FEW,,0.00,0.0,WeatherDisplay:10.37,2013-08-29 02:57:00,
2013-08-28 23:02:00,66.8,63.8,29.92,ESE,114,0.0,0.0,90,0.00,FEW,,0.00,0.0,WeatherDisplay:10.37,2013-08-29 03:02:00,
2013-08-28 23:07:00,66.8,63.8,29.92,ESE,114,0.0,0.0,90,0.00,FEW,,0.00,0.0,WeatherDisplay:10.37,2013-08-29 03:07:00,
2013-08-28 23:13:00,66.7,63.4,29.93,ESE,114,0.0,0.0,89,0.00,FEW,,0.00,0.0,WeatherDisplay:10.37,2013-08-29 03:13:00,
2013-08-28 23:18:00,66.5,63.2,29.93,ESE,114,0.1,1.2,89,0.00,FEW,,0.00,0.0,WeatherDisplay:10.37,2013-08-29 03:18:00,
2013-08-28 23:23:00,66.3,63.0,29.93,ESE,114,0.0,0.0,89,0.00,FEW,,0.00,0.0,WeatherDisplay:10.37,2013-08-29 03:23:00,
2013-08-28 23:28:00,66.0,63.0,29.93,ESE,114,1.0,1.2,90,0.00,FEW,,0.00,0.0,WeatherDisplay:10.37,2013-08-29 03:28:00,
2013-08-28 23:33:00,65.8,62.8,29.93,ESE,114,2.5,5.0,90,0.00,FEW,,0.00,0.0,WeatherDisplay:10.37,2013-08-29 03:33:00,
2013-08-28 23:38:00,65.7,63.0,29.93,ESE,114,0.6,2.3,91,0.00,FEW,,0.00,0.0,WeatherDisplay:10.37,2013-08-29 03:38:00,
2013-08-28 23:43:00,65.7,63.0,29.93,ESE,115,0.0,0.0,91,0.00,FEW,,0.00,0.0,WeatherDisplay:10.37,2013-08-29 03:43:00,
2013-08-28 23:48:00,65.7,63.0,29.93,ESE,115,0.0,0.0,91,0.00,FEW,,0.00,0.0,WeatherDisplay:10.37,2013-08-29 03:48:00,
2013-08-28 23:53:00,65.7,63.0,29.93,ESE,115,2.2,2.2,91,0.00,FEW,,0.00,0.0,WeatherDisplay:10.37,2013-08-29 03:53:00,
2013-08-28 23:58:00,65.6,62.9,29.93,ESE,115,0.1,1.2,91,0.00,FEW,,0.00,0.0,WeatherDisplay:10.37,2013-08-29 03:58:00,